Location: Newark
(34.0131°N, 4.3314°W)
Time: 09:28:17
(UTC+00:00)

Transit 2A Rocket - Pass Details

Date: 28 October 2019
Orbit: 594 x 909 km, 66.7° (Epoch: 19 November)

Event Time Altitude Azimuth Distance (km) Brightness Sun altitude
Rises 11:37:01 0° 347° (NNW) 2,836 7.5 42.5°
Reaches altitude 10° 11:39:34 10° 0° (N) 1,936 6.8 42.6°
Maximum altitude 11:43:10 25° 57° (ENE) 1,229 6.1 42.7°
Drops below altitude 10° 11:46:52 10° 113° (ESE) 1,991 7.6 42.8°
Sets 11:49:30 0° 127° (SE) 2,936 8.5 42.8°
